Date String (YYYY-MM-DD hh:mm:ss) UTC,Instrument flags,Ambient pressure (hPa),Sample flow (lpm),Bypass flow (lpm),Sample temperature (°C),Ambient temperature (°C),ASC tube jacket temperature (°C),LED temperature (°C),Box temperature (°C),Sample RH (%),Span deviation,Mass concentration (μg/m³),Mass concentration (μg/m³),Mass concentration (μg/m³)
DateTimeUTC,F1_M11,P_M11,Q1_M11,Q2_M11,T1_M11,T2_M11,T3_M11,T4_M11,T5_M11,U1_M11,ZSPAN_M11,X0_M11,X2_M11,X1_M11
2021-09-01 04:00:00,,0823.1,4.99,0.00,29.3,26.0,00.0,38.3,30.7,13.7,0001.3,0051.65,0034.67,0032.59
2021-09-01 04:01:00,,0823.1,5.00,0.00,29.2,25.6,00.0,38.3,30.5,13.8,0001.4,0051.74,0034.66,0032.61
2021-09-01 04:02:00,,0823.0,5.01,0.00,29.1,26.0,00.0,38.3,30.6,13.9,0001.5,0052.34,0034.72,0032.62
2021-09-01 04:03:00,,0823.0,5.00,0.00,29.1,26.5,00.0,38.3,30.7,14.0,0001.4,0051.69,0034.66,0032.60
2021-09-01 04:04:00,,0823.0,5.00,0.00,29.1,26.9,00.0,38.2,30.8,14.1,0001.3,0051.07,0034.59,0032.56
2021-09-01 04:05:00,,0823.0,4.99,0.00,29.1,27.3,00.0,38.2,30.8,13.8,0001.3,0051.48,0034.55,0032.49
2021-09-01 04:06:00,,0823.0,5.00,0.00,29.1,27.6,00.0,38.2,30.9,13.7,0001.3,0050.66,0034.43,0032.33
2021-09-01 04:07:00,,0823.0,5.01,0.00,29.2,27.9,00.0,38.2,31.0,13.3,0001.2,0050.57,0034.36,0032.22
2021-09-01 04:08:00,,0822.9,5.00,0.00,29.2,28.1,00.0,38.2,31.1,13.4,0001.1,0050.27,0034.24,0032.08
2021-09-01 04:09:00,,0823.0,4.99,0.00,29.3,28.2,00.0,38.3,31.1,13.6,0001.0,0049.57,0034.03,0031.91
2021-09-01 04:10:00,,0823.0,4.99,0.00,29.3,28.4,00.0,38.3,31.2,13.5,0000.9,0049.31,0033.94,0031.85
2021-09-01 04:11:00,,0823.0,5.00,0.00,29.4,28.5,00.0,38.3,31.3,13.6,0001.0,0049.06,0033.76,0031.68
2021-09-01 04:12:00,,0822.9,5.00,0.00,29.4,28.6,00.0,38.3,31.3,13.7,0001.1,0049.53,0033.70,0031.56
2021-09-01 04:13:00,,0822.9,5.01,0.00,29.5,28.7,00.0,38.4,31.4,13.7,0001.1,0048.99,0033.53,0031.48
2021-09-01 04:14:00,,0822.9,5.00,0.00,29.5,28.6,00.0,38.4,31.4,13.6,0001.1,0047.91,0033.37,0031.35
2021-09-01 04:15:00,,0823.0,5.00,0.00,29.4,26.9,00.0,38.4,30.9,13.7,0001.3,0047.81,0033.21,0031.23
2021-09-01 04:16:00,,0823.0,5.00,0.00,29.3,25.6,00.0,38.4,30.6,13.8,0001.4,0046.95,0033.12,0031.17
2021-09-01 04:17:00,,0823.0,5.01,0.00,29.2,25.8,00.0,38.4,30.6,13.9,0001.5,0046.59,0033.02,0031.15
2021-09-01 04:18:00,,0823.0,5.00,0.00,29.1,26.3,00.0,38.3,30.7,14.0,0001.4,0047.14,0033.03,0031.19
2021-09-01 04:19:00,,0823.0,5.01,0.00,29.1,26.7,00.0,38.3,30.8,14.1,0001.3,0047.67,0033.03,0031.19
2021-09-01 04:20:00,,0823.0,5.01,0.00,29.1,27.1,00.0,38.3,30.8,14.1,0001.1,0048.05,0033.12,0031.22
2021-09-01 04:21:00,,0823.0,5.00,0.00,29.2,27.5,00.0,38.3,30.9,14.2,0001.0,0048.81,0033.06,0031.16
2021-09-01 04:22:00,,0822.9,4.99,0.00,29.2,27.8,00.0,38.3,31.0,14.2,0000.6,0049.33,0033.10,0031.17
2021-09-01 04:23:00,,0823.0,5.00,0.00,29.2,28.0,00.0,38.3,31.1,14.2,0000.4,0048.48,0032.99,0031.12
2021-09-01 04:24:00,,0823.0,5.00,0.00,29.3,28.2,00.0,38.3,31.2,14.3,0000.4,0048.05,0033.02,0031.05
2021-09-01 04:25:00,,0822.9,5.00,0.00,29.3,28.4,00.0,38.3,31.2,14.3,0000.3,0047.99,0032.99,0031.00
2021-09-01 04:26:00,,0822.9,4.99,0.00,29.4,28.5,00.0,38.3,31.3,14.3,0000.3,0047.52,0032.89,0030.93
2021-09-01 04:27:00,,0822.9,5.00,0.00,29.4,28.6,00.0,38.4,31.3,14.3,0000.4,0048.22,0032.80,0030.87
2021-09-01 04:28:00,,0822.9,5.00,0.00,29.5,28.7,00.0,38.4,31.4,14.1,0000.3,0049.40,0032.83,0030.86
2021-09-01 04:29:00,,0823.0,4.99,0.00,29.5,27.7,00.0,38.4,31.1,14.0,0000.4,0050.44,0032.72,0030.75
2021-09-01 04:30:00,,0822.9,5.02,0.00,29.4,26.5,00.0,38.4,30.8,14.1,0000.6,0050.20,0032.65,0030.66
2021-09-01 04:31:00,,0823.0,4.98,0.00,29.3,26.6,00.0,38.4,30.9,14.2,0000.7,0050.06,0032.50,0030.55
2021-09-01 04:32:00,,0822.9,5.01,0.00,29.3,27.0,00.0,38.4,30.9,14.2,0001.0,0049.24,0032.37,0030.42
2021-09-01 04:33:00,,0823.0,4.99,0.00,29.3,27.3,00.0,38.4,31.0,14.2,0001.2,0048.55,0032.22,0030.26
2021-09-01 04:34:00,,0822.9,5.01,0.00,29.3,27.7,00.0,38.4,31.1,14.2,0001.1,0048.74,0032.11,0030.16
2021-09-01 04:35:00,,0822.9,4.98,0.00,29.3,27.9,00.0,38.4,31.1,14.1,0001.0,0048.62,0031.92,0030.01
2021-09-01 04:36:00,,0822.9,5.01,0.00,29.4,28.1,00.0,38.4,31.2,14.1,0000.8,0048.39,0031.80,0029.88
2021-09-01 04:37:00,,0823.0,5.00,0.00,29.4,28.3,00.0,38.4,31.3,14.1,0001.0,0048.32,0031.69,0029.75
2021-09-01 04:38:00,,0823.0,5.00,0.00,29.5,28.5,00.0,38.4,31.3,14.1,0000.8,0047.74,0031.58,0029.59
2021-09-01 04:39:00,,0822.9,4.99,0.00,29.5,28.6,00.0,38.4,31.4,14.1,0000.9,0047.65,0031.45,0029.40
2021-09-01 04:40:00,,0822.9,5.01,0.00,29.5,28.6,00.0,38.5,31.4,14.0,0000.9,0045.90,0031.29,0029.25
2021-09-01 04:41:00,,0822.9,5.00,0.00,29.5,27.1,00.0,38.5,31.0,14.0,0000.7,0044.76,0031.13,0029.14
2021-09-01 04:42:00,,0822.9,4.98,0.00,29.3,25.5,00.0,38.4,30.5,14.2,0000.7,0044.42,0030.97,0029.00
2021-09-01 04:43:00,,0822.9,5.00,0.00,29.2,25.6,00.0,38.4,30.5,14.2,0000.7,0044.77,0030.84,0028.95
2021-09-01 04:44:00,,0822.9,5.01,0.00,29.1,26.0,00.0,38.4,30.6,14.2,0000.6,0044.95,0030.74,0028.93
2021-09-01 04:45:00,,0822.8,5.00,0.00,29.1,26.5,00.0,38.3,30.7,14.1,0000.5,0044.48,0030.64,0028.87
2021-09-01 04:46:00,,0822.8,4.99,0.00,29.1,26.9,00.0,38.3,30.8,14.1,0000.4,0044.26,0030.60,0028.85
2021-09-01 04:47:00,,0822.9,5.00,0.00,29.1,27.3,00.0,38.3,30.9,14.1,0000.4,0044.27,0030.61,0028.82
2021-09-01 04:48:00,,0822.9,5.01,0.00,29.2,27.6,00.0,38.3,30.9,14.1,0000.2,0044.51,0030.59,0028.80
2021-09-01 04:49:00,,0822.9,5.00,0.00,29.2,27.9,00.0,38.3,31.0,14.4,0000.4,0044.52,0030.56,0028.78
2021-09-01 04:50:00,,0822.9,5.01,0.00,29.2,28.0,00.0,38.3,31.1,14.1,0000.3,0043.35,0030.50,0028.74
2021-09-01 04:51:00,,0822.8,5.00,0.00,29.3,28.2,00.0,38.3,31.1,14.3,0000.3,0043.03,0030.47,0028.73
2021-09-01 04:52:00,,0822.8,5.01,0.00,29.3,28.4,00.0,38.3,31.2,14.5,0000.3,0043.17,0030.39,0028.66
2021-09-01 04:53:00,,0822.8,5.00,0.00,29.4,28.5,00.0,38.3,31.2,14.2,0000.3,0043.10,0030.34,0028.62
2021-09-01 04:54:00,,0822.8,4.99,0.00,29.4,28.6,00.0,38.4,31.3,14.2,0000.3,0042.55,0030.32,0028.56
2021-09-01 04:55:00,,0822.7,5.01,0.00,29.5,28.7,00.0,38.4,31.3,14.2,0000.6,0042.99,0030.32,0028.51
2021-09-01 04:56:00,,0822.8,5.00,0.00,29.5,28.6,00.0,38.4,31.4,14.4,0000.9,0043.07,0030.29,0028.49
2021-09-01 04:57:00,,0822.8,4.99,0.00,29.5,27.0,00.0,38.4,31.0,14.3,0000.9,0043.66,0030.25,0028.45
2021-09-01 04:58:00,,0822.8,5.00,0.00,29.3,25.3,00.0,38.4,30.5,14.3,0000.9,0045.34,0030.13,0028.42
2021-09-01 04:59:00,,0822.7,5.01,0.00,29.2,25.5,00.0,38.4,30.5,14.5,0000.9,0045.52,0030.09,0028.38
